Year,Month,Day,Hour,Minute,Value (Times are PST for temperature in C)
2010,06,27,12,11,13.60
2010,06,27,12,12,13.60
2010,06,27,12,13,13.60
2010,06,27,12,14,13.50
2010,06,27,12,15,13.50
2010,06,27,12,16,13.60
2010,06,27,12,17,13.60
2010,06,27,12,18,13.60
2010,06,27,12,19,13.70
2010,06,27,12,20,13.70
2010,06,27,12,21,13.60
2010,06,27,12,22,13.60
2010,06,27,12,23,13.60
2010,06,27,12,24,13.60
2010,06,27,12,25,13.60
2010,06,27,12,26,13.60
2010,06,27,12,27,13.60
2010,06,27,12,28,13.70
2010,06,27,12,29,13.70
2010,06,27,12,30,13.70
2010,06,27,12,31,13.70
2010,06,27,12,32,13.80
2010,06,27,12,33,13.80
2010,06,27,12,34,13.90
2010,06,27,12,35,13.90
2010,06,27,12,36,13.90
2010,06,27,12,37,13.90
2010,06,27,12,38,14.00
2010,06,27,12,39,14.00
2010,06,27,12,40,14.00
2010,06,27,12,41,14.10
2010,06,27,12,42,14.10
2010,06,27,12,43,14.10
2010,06,27,12,44,14.10
2010,06,27,12,45,14.10
2010,06,27,12,46,14.10
2010,06,27,12,47,14.10
2010,06,27,12,48,14.20
2010,06,27,12,49,14.20
2010,06,27,12,50,14.20
2010,06,27,12,51,14.20
2010,06,27,12,52,14.30
2010,06,27,12,53,14.30
2010,06,27,12,54,14.20
2010,06,27,12,55,14.20
2010,06,27,12,56,14.20
2010,06,27,12,57,14.20
2010,06,27,12,58,14.30
2010,06,27,12,59,14.30
2010,06,27,13,00,14.30
2010,06,27,13,01,14.30
2010,06,27,13,02,14.20
2010,06,27,13,03,14.20
2010,06,27,13,04,14.10
2010,06,27,13,05,14.10
2010,06,27,13,06,14.10
2010,06,27,13,07,14.10
2010,06,27,13,08,14.10
2010,06,27,13,09,14.10
2010,06,27,13,10,14.20
2010,06,27,13,11,14.20
2010,06,27,13,12,14.20
2010,06,27,13,13,14.20
2010,06,27,13,14,14.20
2010,06,27,13,15,14.20
2010,06,27,13,16,14.30
2010,06,27,13,17,14.30
2010,06,27,13,18,14.40
2010,06,27,13,19,14.40
2010,06,27,13,20,14.40
2010,06,27,13,21,14.50
2010,06,27,13,22,14.50
2010,06,27,13,23,14.50
2010,06,27,13,24,14.50
2010,06,27,13,25,14.60
2010,06,27,13,26,14.60
2010,06,27,13,27,14.60
2010,06,27,13,28,14.60
2010,06,27,13,29,14.50
2010,06,27,13,30,14.50
2010,06,27,13,31,14.50
2010,06,27,13,32,14.40
2010,06,27,13,33,14.40
2010,06,27,13,34,14.30
2010,06,27,13,35,14.20
2010,06,27,13,36,14.20
2010,06,27,13,37,14.20
2010,06,27,13,38,14.20
2010,06,27,13,39,14.10
2010,06,27,13,40,14.10
2010,06,27,13,41,14.10
2010,06,27,13,42,14.10
2010,06,27,13,43,14.10
2010,06,27,13,44,14.10
2010,06,27,13,45,14.10
2010,06,27,13,46,14.20
2010,06,27,13,47,14.20
2010,06,27,13,48,14.20
2010,06,27,13,49,14.20
2010,06,27,13,50,14.20
2010,06,27,13,51,14.20
2010,06,27,13,52,14.20
2010,06,27,13,53,14.20
2010,06,27,13,54,14.30
2010,06,27,13,55,14.30
2010,06,27,13,56,14.30
2010,06,27,13,57,14.30
2010,06,27,13,58,14.30
2010,06,27,13,59,14.20
2010,06,27,14,00,14.20
2010,06,27,14,01,14.20
2010,06,27,14,02,14.20
2010,06,27,14,03,14.20
2010,06,27,14,04,14.20
2010,06,27,14,05,14.20
2010,06,27,14,06,14.20
2010,06,27,14,07,14.20
2010,06,27,14,08,14.30
2010,06,27,14,09,14.30
2010,06,27,14,10,14.30
2010,06,27,14,11,14.30
2010,06,27,14,12,14.30
2010,06,27,14,13,14.40
2010,06,27,14,14,14.40
2010,06,27,14,15,14.30
2010,06,27,14,16,14.40
2010,06,27,14,17,14.40
2010,06,27,14,18,14.40
2010,06,27,14,19,14.40
2010,06,27,14,20,14.40
2010,06,27,14,21,14.30
2010,06,27,14,22,14.30
2010,06,27,14,23,14.30
2010,06,27,14,24,14.20
2010,06,27,14,25,14.20
2010,06,27,14,26,14.20
2010,06,27,14,27,14.20
2010,06,27,14,28,14.10
2010,06,27,14,29,14.10
2010,06,27,14,30,14.10
2010,06,27,14,31,14.10
2010,06,27,14,32,14.00
2010,06,27,14,33,14.00
2010,06,27,14,34,14.00
2010,06,27,14,35,13.90
2010,06,27,14,36,13.90
2010,06,27,14,37,13.80
2010,06,27,14,38,13.80
2010,06,27,14,39,13.80
2010,06,27,14,40,13.80
2010,06,27,14,41,13.80
2010,06,27,14,42,13.80
2010,06,27,14,43,13.80
2010,06,27,14,44,13.70
2010,06,27,14,45,13.70
2010,06,27,14,46,13.70
2010,06,27,14,47,13.70
2010,06,27,14,48,13.80
2010,06,27,14,49,13.80
2010,06,27,14,50,13.80
2010,06,27,14,51,13.80
2010,06,27,14,52,13.80
2010,06,27,14,53,13.80
2010,06,27,14,54,13.80
2010,06,27,14,55,13.80
2010,06,27,14,56,13.90
2010,06,27,14,57,13.90
2010,06,27,14,58,13.90
2010,06,27,14,59,14.00
2010,06,27,15,00,14.00
2010,06,27,15,01,14.00
2010,06,27,15,02,14.00
2010,06,27,15,03,14.00
2010,06,27,15,04,14.10
2010,06,27,15,05,14.10
2010,06,27,15,06,14.10
2010,06,27,15,07,14.10
2010,06,27,15,08,14.10
2010,06,27,15,09,14.10
2010,06,27,15,10,14.10
2010,06,27,15,11,14.20
2010,06,27,15,12,14.20
2010,06,27,15,13,14.20
2010,06,27,15,14,14.30
2010,06,27,15,15,14.30
2010,06,27,15,16,14.30
2010,06,27,15,17,14.40
2010,06,27,15,18,14.40
2010,06,27,15,19,14.40
2010,06,27,15,20,14.50
2010,06,27,15,21,14.60
2010,06,27,15,22,14.60
2010,06,27,15,23,14.70
2010,06,27,15,24,14.70
2010,06,27,15,25,14.70
2010,06,27,15,26,14.70
2010,06,27,15,27,14.70
2010,06,27,15,28,14.70
2010,06,27,15,29,14.70
2010,06,27,15,30,14.70
2010,06,27,15,31,14.70
2010,06,27,15,32,14.80
2010,06,27,15,33,14.80
2010,06,27,15,34,14.80
2010,06,27,15,35,14.90
2010,06,27,15,36,14.90
2010,06,27,15,37,15.00
2010,06,27,15,38,15.00
2010,06,27,15,39,15.00
2010,06,27,15,40,15.00
2010,06,27,15,41,15.00
2010,06,27,15,42,15.10
2010,06,27,15,43,15.20
2010,06,27,15,44,15.20
2010,06,27,15,45,15.20
2010,06,27,15,46,15.20
2010,06,27,15,47,15.20
2010,06,27,15,48,15.20
2010,06,27,15,49,15.30
2010,06,27,15,50,15.20
2010,06,27,15,51,15.20
2010,06,27,15,52,15.10
2010,06,27,15,53,15.10
2010,06,27,15,54,15.10
2010,06,27,15,55,15.10
2010,06,27,15,56,15.10
2010,06,27,15,57,15.10
2010,06,27,15,58,15.10
2010,06,27,15,59,15.10
2010,06,27,16,00,15.10
2010,06,27,16,01,15.20
2010,06,27,16,02,15.20
2010,06,27,16,03,15.20
2010,06,27,16,04,15.20
2010,06,27,16,05,15.20
2010,06,27,16,06,15.20
2010,06,27,16,07,15.20
2010,06,27,16,08,15.30
2010,06,27,16,09,15.30
2010,06,27,16,10,15.30
2010,06,27,16,11,15.30
2010,06,27,16,12,15.30
2010,06,27,16,13,15.30
2010,06,27,16,14,15.30
2010,06,27,16,15,15.30
2010,06,27,16,16,15.30
2010,06,27,16,17,15.30
2010,06,27,16,18,15.30
2010,06,27,16,19,15.40
2010,06,27,16,20,15.40
2010,06,27,16,21,15.40
2010,06,27,16,22,15.40
2010,06,27,16,23,15.40
2010,06,27,16,24,15.30
2010,06,27,16,25,15.30
2010,06,27,16,26,15.30
2010,06,27,16,27,15.40
2010,06,27,16,28,15.30
2010,06,27,16,29,15.20
2010,06,27,16,30,15.10
2010,06,27,16,31,15.20
2010,06,27,16,32,15.20
2010,06,27,16,33,15.20
2010,06,27,16,34,15.30
2010,06,27,16,35,15.30
2010,06,27,16,36,15.40
2010,06,27,16,37,15.50
2010,06,27,16,38,15.50
2010,06,27,16,39,15.50
2010,06,27,16,40,15.50
2010,06,27,16,41,15.60
2010,06,27,16,42,15.70
2010,06,27,16,43,15.80
2010,06,27,16,44,15.80
2010,06,27,16,45,15.90
2010,06,27,16,46,15.90
2010,06,27,16,47,15.90
2010,06,27,16,48,16.00
2010,06,27,16,49,16.00
2010,06,27,16,50,16.00
2010,06,27,16,51,16.10
2010,06,27,16,52,16.10
2010,06,27,16,53,16.00
2010,06,27,16,54,16.00
2010,06,27,16,55,15.90
2010,06,27,16,56,15.90
2010,06,27,16,57,15.80
2010,06,27,16,58,15.80
2010,06,27,16,59,15.80
2010,06,27,17,00,15.70
2010,06,27,17,01,15.70
2010,06,27,17,02,15.80
2010,06,27,17,03,15.80
2010,06,27,17,04,15.80
2010,06,27,17,05,15.80
2010,06,27,17,06,15.80
2010,06,27,17,07,15.80
2010,06,27,17,08,15.80
2010,06,27,17,09,15.70
2010,06,27,17,10,15.70
2010,06,27,17,11,15.50
2010,06,27,17,12,15.50
2010,06,27,17,13,15.30
2010,06,27,17,14,15.20
2010,06,27,17,15,15.10
2010,06,27,17,16,15.00
2010,06,27,17,17,15.00
2010,06,27,17,18,15.00
2010,06,27,17,19,15.00
2010,06,27,17,20,15.00
2010,06,27,17,21,15.00
2010,06,27,17,22,15.00
2010,06,27,17,23,15.10
2010,06,27,17,24,15.10
2010,06,27,17,25,15.20
2010,06,27,17,26,15.20
2010,06,27,17,27,15.20
2010,06,27,17,28,15.20
2010,06,27,17,29,15.20
2010,06,27,17,30,15.20
2010,06,27,17,31,15.20
2010,06,27,17,32,15.20
2010,06,27,17,33,15.20
2010,06,27,17,34,15.20
2010,06,27,17,35,15.20
2010,06,27,17,36,15.20
2010,06,27,17,37,15.30
2010,06,27,17,38,15.30
2010,06,27,17,39,15.30
2010,06,27,17,40,15.30
2010,06,27,17,41,15.30
2010,06,27,17,42,15.30
2010,06,27,17,43,15.30
2010,06,27,17,44,15.30
2010,06,27,17,45,15.30
2010,06,27,17,46,15.30
2010,06,27,17,47,15.40
2010,06,27,17,48,15.50
2010,06,27,17,49,15.60
2010,06,27,17,50,15.70
2010,06,27,17,51,15.70
2010,06,27,17,52,15.80
2010,06,27,17,53,15.80
2010,06,27,17,54,15.80
2010,06,27,17,55,15.80
2010,06,27,17,56,15.90
2010,06,27,17,57,15.90
2010,06,27,17,58,16.10
2010,06,27,17,59,16.10
2010,06,27,18,00,16.10
2010,06,27,18,01,16.00
2010,06,27,18,02,15.90
2010,06,27,18,03,15.90
2010,06,27,18,04,15.90
2010,06,27,18,05,15.90
2010,06,27,18,06,15.90
2010,06,27,18,07,15.90
2010,06,27,18,08,15.90
2010,06,27,18,09,15.90
2010,06,27,18,10,15.80
2010,06,27,18,11,15.80
2010,06,27,18,12,15.70
2010,06,27,18,13,15.70
2010,06,27,18,14,15.60
2010,06,27,18,15,15.60
2010,06,27,18,16,15.70
2010,06,27,18,17,15.80
2010,06,27,18,18,15.90
2010,06,27,18,19,16.00
2010,06,27,18,20,16.20
2010,06,27,18,21,16.30
2010,06,27,18,22,16.40
2010,06,27,18,23,16.50
2010,06,27,18,24,16.60
2010,06,27,18,25,16.70
2010,06,27,18,26,16.80
2010,06,27,18,27,16.90
2010,06,27,18,28,17.00
2010,06,27,18,29,17.10
2010,06,27,18,30,17.00
2010,06,27,18,31,16.80
2010,06,27,18,32,16.60
2010,06,27,18,33,16.50
2010,06,27,18,34,16.50
2010,06,27,18,35,16.50
2010,06,27,18,36,16.60
2010,06,27,18,37,16.70
2010,06,27,18,38,16.80
2010,06,27,18,39,16.80
2010,06,27,18,40,16.90
2010,06,27,18,41,16.80
2010,06,27,18,42,16.80
2010,06,27,18,43,16.80
2010,06,27,18,44,16.80
2010,06,27,18,45,16.70
2010,06,27,18,46,16.70
2010,06,27,18,47,16.60
2010,06,27,18,48,16.60
2010,06,27,18,49,16.60
2010,06,27,18,50,16.60
2010,06,27,18,51,16.60
2010,06,27,18,52,16.60
2010,06,27,18,53,16.60
2010,06,27,18,54,16.60
2010,06,27,18,55,16.60
2010,06,27,18,56,16.60
2010,06,27,18,57,16.60
2010,06,27,18,58,16.60
2010,06,27,18,59,16.70
2010,06,27,19,00,16.70
2010,06,27,19,01,16.70
2010,06,27,19,02,16.70
2010,06,27,19,03,16.60
2010,06,27,19,04,16.50
2010,06,27,19,05,16.50
2010,06,27,19,06,16.40
2010,06,27,19,07,16.30
2010,06,27,19,08,16.30
2010,06,27,19,09,16.20
2010,06,27,19,10,16.20
2010,06,27,19,11,16.10
2010,06,27,19,12,16.00
2010,06,27,19,13,15.90
2010,06,27,19,14,15.80
2010,06,27,19,15,15.80
2010,06,27,19,16,15.80
2010,06,27,19,17,15.80
2010,06,27,19,18,15.80
2010,06,27,19,19,15.80
2010,06,27,19,20,15.80
2010,06,27,19,21,15.80
2010,06,27,19,22,15.80
2010,06,27,19,23,15.80
2010,06,27,19,24,15.90
2010,06,27,19,25,15.80
2010,06,27,19,26,15.80
2010,06,27,19,27,15.80
2010,06,27,19,28,15.80
2010,06,27,19,29,15.70
2010,06,27,19,30,15.70
2010,06,27,19,31,15.70
2010,06,27,19,32,15.70
2010,06,27,19,33,15.70
2010,06,27,19,34,15.70
2010,06,27,19,35,15.70
2010,06,27,19,36,15.70
2010,06,27,19,37,15.70
2010,06,27,19,38,15.70
2010,06,27,19,39,15.70
